User: anonymous   Login
Location: Caltech
(34.1382°N, 118.1253°W)
Time: 07:53:18
(UTC-08:00)
Language:

Spot 4 Rocket - Orbit

View from above orbital plane
View from above orbital plane
View from above satellite
View from above satellite

Ground track
Ground track

The orbit data is extracted from the following two-line orbital elements,

1 25261U 98017B   17057.99397741  .00000074  00000-0  42368-4 0  9998
2 25261  98.5341   6.6936 0004427  64.1939 295.9702 14.33557289989228
Epoch (UTC): 26 February 2017 23:51:19
Eccentricity: 0.0004427
inclination: 98.5341°
perigee height: 776 km
apogee height: 783 km
right ascension of ascending node: 6.6936°
argument of perigee: 64.1939°
revolutions per day: 14.33557289
mean anomaly at epoch: 295.9702°
orbit number at epoch: 98922

The dashed part of the orbit path shows where the satellite is in the earth's shadow,  

DLR